Rochelle, IL

1:21 AM CST on February 26, 2017 (GMT -0600)
Rochelle

Weather History for KRPJ - January, 2012

Change the Weather History Date:

Tuesday, January 31, 2012

  Actual Average (KRFD) Record (KRFD)
Temperature  
Mean Temperature 45 °F -  
Max Temperature 53 °F 30 °F 63 °F (1989)
Min Temperature 36 °F 12 °F -18 °F (1996)
Degree Days  
Heating Degree Days 20    
Moisture  
Dew Point 41 °F    
Average Humidity 87    
Maximum Humidity 100    
Minimum Humidity 78    
Precipitation  
Precipitation 0.00 in - - ()
Sea Level Pressure  
Sea Level Pressure 29.81 in    
Wind  
Wind Speed 14 mph (SW)    
Max Wind Speed 23 mph    
Max Gust Speed 30 mph    
Visibility 9 miles    
Events Fog    
Averages and records for this station are not official NWS values.
T = Trace of Precipitation, MM = Missing Value Source: NWS Daily Summary

Daily Weather History Graph

Daily Weather History Graph

Search for Another Location

Airport or City:

Trip Planner

Search our weather history database for the weather conditions in past years. The results will help you decide how hot, cold, wet, or windy it might be!

Date:

Astronomy

Jan. 31, 2012 Rise Set
Actual Time 7:10 AM CST 5:09 PM CST
Civil Twilight 6:40 AM CST 5:39 PM CST
Nautical Twilight 6:07 AM CST 6:12 PM CST
Astronomical Twilight 5:34 AM CST 6:45 PM CST
Moon 10:59 AM CST (1/31) 12:58 AM CST (1/31)
Length of Visible Light 10h 58m
Length of Day
9h 59m
First Quarter, 55% of the Moon is Illuminated
Jan 31
First Quarter
Feb 7
Full
Feb 14
Last Quarter
Feb 21
New
Feb 29
First Quarter

Hourly Weather History & Observations

Time (CST) Temp. Windchill Dew Point Humidity Pressure Visibility Wind Dir Wind Speed Gust Speed Precip Events Conditions
12:15 AM 41.9 °F 34.0 °F 35.4 °F 78% 29.83 in 10.0 mi SSW 16.1 mph - N/A   Clear
12:35 AM 41.2 °F 33.4 °F 35.8 °F 81% 29.84 in 10.0 mi SW 15.0 mph - N/A   Clear
12:55 AM 41.0 °F 34.7 °F 36.1 °F 83% 29.84 in 10.0 mi SSW 10.4 mph - N/A   Clear
1:15 AM 39.7 °F 32.3 °F 35.2 °F 84% 29.84 in 10.0 mi SSW 12.7 mph - N/A   Clear
1:35 AM 40.3 °F 33.4 °F 35.6 °F 83% 29.84 in 10.0 mi SSW 11.5 mph - N/A   Clear
1:55 AM 40.1 °F 32.4 °F 35.6 °F 84% 29.84 in 10.0 mi SSW 13.8 mph - N/A   Clear
2:15 AM 39.6 °F 31.7 °F 35.6 °F 86% 29.84 in 10.0 mi SSW 13.8 mph - N/A   Clear
2:35 AM 38.7 °F 30.9 °F 34.9 °F 86% 29.84 in 10.0 mi SSW 12.7 mph - N/A   Clear
2:55 AM 38.3 °F 30.5 °F 34.9 °F 87% 29.83 in 10.0 mi South 12.7 mph - N/A   Clear
3:15 AM 38.3 °F 31.4 °F 34.9 °F 87% 29.83 in 10.0 mi South 10.4 mph - N/A   Clear
3:55 AM 37.9 °F 30.5 °F 35.2 °F 90% 29.82 in 10.0 mi South 11.5 mph - N/A   Clear
4:15 AM 37.8 °F 30.7 °F 35.1 °F 90% 29.82 in 10.0 mi South 10.4 mph - N/A   Clear
4:35 AM 37.6 °F 30.5 °F 35.2 °F 91% 29.82 in 10.0 mi South 10.4 mph - N/A   Clear
4:55 AM 37.8 °F 30.2 °F 35.4 °F 91% 29.82 in 10.0 mi South 11.5 mph - N/A   Clear
5:15 AM 38.1 °F 30.2 °F 35.8 °F 91% 29.81 in 10.0 mi South 12.7 mph - N/A   Clear
5:35 AM 38.3 °F 30.1 °F 36.0 °F 91% 29.81 in 10.0 mi South 13.8 mph - N/A   Clear
5:55 AM 38.8 °F 31.2 °F 36.5 °F 91% 29.81 in 10.0 mi South 12.7 mph - N/A   Clear
6:15 AM 38.7 °F 31.4 °F 36.5 °F 92% 29.81 in 10.0 mi South 11.5 mph - N/A   Clear
6:35 AM 38.5 °F 31.6 °F 36.5 °F 93% 29.81 in 10.0 mi South 10.4 mph - N/A   Clear
6:55 AM 38.5 °F 31.1 °F 36.5 °F 93% 29.81 in 10.0 mi South 11.5 mph - N/A   Clear
7:15 AM 39.2 °F 30.8 °F 36.9 °F 91% 29.81 in 10.0 mi SSW 15.0 mph - N/A   Clear
7:35 AM 40.1 °F 32.4 °F 37.2 °F 89% 29.81 in 10.0 mi SSW 13.8 mph - N/A   Clear
7:55 AM 41.0 °F 32.8 °F 37.6 °F 88% 29.81 in 10.0 mi SSW 16.1 mph - N/A   Clear
8:15 AM 42.3 °F 34.1 °F 38.3 °F 86% 29.82 in 10.0 mi SSW 17.3 mph - N/A   Clear
8:35 AM 43.3 °F 35.0 °F 38.7 °F 84% 29.82 in 10.0 mi SSW 19.6 mph - N/A   Clear
8:55 AM 44.8 °F 36.9 °F 39.2 °F 81% 29.81 in 10.0 mi SSW 19.6 mph 27.6 mph N/A   Clear
9:15 AM 45.3 °F 37.6 °F 39.9 °F 81% 29.81 in 10.0 mi SSW 19.6 mph - N/A   Clear
9:35 AM 47.3 °F - 41.7 °F 81% 29.81 in 10.0 mi SSW 17.3 mph 23.0 mph N/A   Clear
9:55 AM 48.9 °F - 43.7 °F 82% 29.81 in 10.0 mi SW 21.9 mph 29.9 mph N/A   Clear
10:15 AM 50.2 °F - 44.2 °F 80% 29.81 in 10.0 mi SW 21.9 mph 26.5 mph N/A   Clear
10:35 AM 51.3 °F - 44.8 °F 78% 29.81 in 10.0 mi SW 23.0 mph 27.6 mph N/A   Clear
10:55 AM 52.0 °F - 45.5 °F 79% 29.81 in 10.0 mi SW 20.7 mph - N/A   Clear
11:15 AM 51.8 °F - 45.7 °F 80% 29.81 in 10.0 mi SW 21.9 mph 25.3 mph N/A   Mostly Cloudy
11:35 AM 51.8 °F - 45.9 °F 80% 29.80 in 10.0 mi SW 20.7 mph - N/A   Overcast
11:55 AM 52.0 °F - 46.0 °F 80% 29.80 in 10.0 mi SW 17.3 mph 24.2 mph N/A   Overcast
12:15 PM 51.8 °F - 46.4 °F 82% 29.80 in 10.0 mi SW 13.8 mph - N/A   Overcast
12:35 PM 53.6 °F - 48.2 °F 82% 29.79 in 10.0 mi WSW 16.1 mph - N/A   Overcast
12:55 PM 53.1 °F - 48.2 °F 84% 29.78 in 10.0 mi WSW 16.1 mph - N/A   Overcast
1:15 PM 53.6 °F - 48.7 °F 84% 29.78 in 10.0 mi WSW 16.1 mph - N/A   Overcast
1:35 PM 52.7 °F - 48.2 °F 85% 29.77 in 10.0 mi WSW 12.7 mph - N/A   Overcast
1:55 PM 51.8 °F - 48.0 °F 87% 29.77 in 10.0 mi WSW 12.7 mph - N/A   Overcast
2:15 PM 52.2 °F - 47.8 °F 85% 29.77 in 10.0 mi WSW 12.7 mph - N/A   Overcast
2:35 PM 50.9 °F - 47.5 °F 88% 29.77 in 10.0 mi WSW 8.1 mph - N/A   Overcast
2:55 PM 50.7 °F - 47.7 °F 89% 29.77 in 10.0 mi SW 5.8 mph - N/A   Overcast
3:15 PM 50.0 °F - 47.5 °F 91% 29.77 in 10.0 mi SW 6.9 mph - N/A   Overcast
3:35 PM 51.8 °F - 48.0 °F 87% 29.77 in 10.0 mi SW 10.4 mph - N/A   Overcast
3:55 PM 51.3 °F - 48.2 °F 89% 29.77 in 10.0 mi SW 9.2 mph - N/A   Mostly Cloudy
4:15 PM 51.4 °F - 48.0 °F 88% 29.78 in 10.0 mi SW 13.8 mph - N/A   Overcast
4:35 PM 51.3 °F - 47.5 °F 87% 29.79 in 10.0 mi SW 12.7 mph - N/A   Overcast
4:55 PM 50.5 °F - 46.9 °F 87% 29.80 in 10.0 mi WSW 10.4 mph - N/A   Overcast
5:15 PM 48.6 °F - 45.9 °F 90% 29.81 in 10.0 mi West 9.2 mph - N/A   Overcast
5:35 PM 46.6 °F - 44.8 °F 93% 29.81 in 10.0 mi WSW 9.2 mph - N/A   Mostly Cloudy
5:55 PM 44.8 °F 39.4 °F 43.3 °F 95% 29.82 in 7.0 mi WSW 10.4 mph - N/A   Scattered Clouds
6:15 PM 44.8 °F 39.9 °F 43.5 °F 95% 29.82 in 7.0 mi SW 9.2 mph - N/A   Clear
6:35 PM 41.5 °F 35.9 °F 40.5 °F 96% 29.83 in 5.0 mi SW 9.2 mph - N/A   Clear
6:55 PM 41.0 °F 35.8 °F 40.3 °F 97% 29.83 in 5.0 mi WSW 8.1 mph - N/A   Clear
7:15 PM 39.2 °F 33.0 °F 38.7 °F 98% 29.84 in 2.5 mi WSW 9.2 mph - N/A   Clear
7:35 PM 38.8 °F 32.6 °F 38.3 °F 98% 29.84 in 3.0 mi WSW 9.2 mph - N/A   Clear
8:15 PM 37.4 °F 30.8 °F 37.0 °F 99% 29.85 in 1.0 mi WSW 9.2 mph - N/A   Mist
8:35 PM 36.5 °F 30.3 °F 36.5 °F 100% 29.86 in 0.5 mi West 8.1 mph - N/A Fog Fog
9:15 PM 39.4 °F 33.2 °F 39.4 °F 100% 29.88 in 4.0 mi WNW 9.2 mph - N/A   Clear
9:35 PM 39.4 °F 32.7 °F 37.9 °F 95% 29.88 in 10.0 mi WNW 10.4 mph - N/A   Clear
9:55 PM 39.0 °F 32.3 °F 36.1 °F 89% 29.89 in 10.0 mi WNW 10.4 mph - N/A   Clear
10:15 PM 39.2 °F 33.0 °F 35.8 °F 88% 29.90 in 10.0 mi WNW 9.2 mph - N/A   Clear
10:35 PM 36.3 °F 30.1 °F 34.0 °F 91% 29.90 in 10.0 mi West 8.1 mph - N/A   Clear
10:55 PM 36.5 °F 31.0 °F 34.3 °F 92% 29.92 in 10.0 mi West 6.9 mph - N/A   Clear
11:15 PM 35.6 °F 30.7 °F 33.8 °F 93% 29.92 in 10.0 mi West 5.8 mph - N/A   Clear
11:35 PM 34.7 °F 28.8 °F 33.3 °F 94% 29.93 in 10.0 mi West 6.9 mph - N/A   Clear
11:55 PM 34.7 °F 30.6 °F 33.3 °F 94% 29.94 in 10.0 mi WSW 4.6 mph - N/A   Clear